#timestamp,LO_Frequency,Hit,StdDev 
1512082815.5,286046999.7,N
1512082835.3,286047004.4,N
1512082855.1,286047004.8,N
1512082875.9,286047005.6,N
1512082895.7,286046999.8,N
1512082915.5,286047000.0,N
1512082935.4,286047005.6,N
1512082955.2,286047005.2,N
1512082975.0,286047008.0,N
1512082975.9,286047008.0,N
1512082995.8,286047002.6,N
1512083015.6,286046997.5,N
1512083035.4,286046993.1,N
1512083055.3,286046994.7,N
1512083075.1,286046993.3,N
1512083076.0,286046993.3,N
1512083095.8,286046993.6,N
1512083115.6,286046995.1,N
1512083135.5,286046997.0,N
1512083155.3,286046999.2,N
1512083175.1,286046998.5,N
1512083195.9,286046998.5,N
1512083215.7,286047000.3,N
1512083235.5,286047002.1,N
1512083255.4,286046998.9,N
1512083275.2,286046995.3,N
1512083295.0,286046995.5,N
1512083295.9,286046995.5,N
1512083315.8,286046992.4,N
1512083335.6,286046992.1,N
1512083355.4,286046990.4,N
1512083375.3,286046992.3,N
1512083395.1,286046994.1,N
1512083396.0,286046994.1,N
1512083415.8,286046991.5,N
1512083435.7,286046991.6,N
1512083455.5,286046992.3,N
1512083475.3,286046992.2,N
1512083495.1,286046990.2,N
1512083515.9,286046991.5,N
1512083535.7,286046988.5,Y
1512083555.6,286046992.5,P
1512083575.4,286046990.1,P
1512083595.2,286046992.8,P
1512083615.1,286046987.3,Y
1512083616.0,286046987.3,P
1512083635.8,286046988.5,P
1512083655.6,286046988.1,P
1512083675.5,286046983.7,Y
1512083695.3,286046995.5,P
1512083715.1,286046991.3,N
1512083735.9,286046991.5,P
1512083755.7,286046989.4,Y
1512083775.5,286046997.9,P
1512083795.4,286046993.1,N
1512083815.2,286046988.2,P
1512083835.0,286046989.5,Y
1512083835.9,286046989.5,P
1512083855.8,286046999.2,N
1512083875.6,286046999.3,N
1512083895.4,286047001.8,N
1512083915.2,286046999.8,N
1512083935.1,286046998.4,N
1512083936.0,286046998.4,N
1512083955.8,286046993.4,N
1512083975.6,286046992.5,N
1512083995.5,286046995.3,N
1512084015.3,286047000.0,N
1512084035.1,286046997.4,N
1512084055.9,286046994.2,N
1512084075.7,286046986.9,Y
1512084095.5,286046993.2,P
1512084115.4,286046990.6,P
1512084135.2,286046990.5,P
1512084155.0,286046994.0,N
1512084155.9,286046994.0,N
1512084175.8,286046996.4,N
1512084195.6,286046995.4,N
1512084215.4,286046992.4,Y
1512084235.3,286046995.7,P
1512084255.1,286046994.6,P
1512084256.0,286046994.6,P
1512084275.8,286046994.7,Y
1512084295.7,286046996.8,P
1512084315.5,286046999.3,N
1512084335.3,286047002.5,N
1512084355.2,286047002.5,N
1512084375.9,286047002.4,N
1512084395.7,286047002.4,N
1512084415.6,286046998.8,N
1512084435.4,286046999.0,N
1512084455.2,286046997.9,N
1512084475.0,286046994.7,N
1512084476.0,286046994.7,N
1512084495.8,286046990.4,Y
1512084515.6,286046989.8,P
1512084535.5,286046988.2,N
1512084555.3,286046984.5,P
1512084575.1,286046981.0,Y
1512084595.9,286046993.0,P
1512084615.7,286046992.3,P
1512084635.5,286046993.1,P
1512084655.4,286046995.1,Y
1512084675.2,286047008.8,P
1512084695.0,286047006.4,N
1512084695.9,286047006.4,N
1512084715.8,286047008.0,N
1512084735.6,286047004.8,N
1512084755.4,286047005.4,N
1512084775.2,286047005.0,N
1512084795.1,286047004.5,N
1512084796.0,286047004.5,N
1512084815.8,286047004.5,N
1512084835.6,286047003.1,N
1512084855.5,286047005.0,N
1512084875.3,286047010.0,N
1512084895.1,286047014.5,Y
1512084915.9,286047017.2,P
1512084935.7,286047014.9,N
1512084955.5,286047014.2,N
1512084975.4,286047014.5,Y
1512084995.2,286047002.5,P
1512085015.0,286046998.7,N
1512085015.9,286046998.7,N
1512085035.8,286046996.8,N
1512085055.6,286046999.0,N
1512085075.4,286046995.7,N
1512085095.3,286046991.8,N
1512085115.1,286046992.2,N
1512085135.8,286046992.3,N
1512085155.7,286046991.8,N
1512085175.5,286046994.7,N
1512085195.3,286046994.4,N
1512085215.2,286046993.7,N
1512085235.9,286046998.1,N
1512085255.7,286047004.2,N
1512085275.5,286047003.9,N
1512085295.4,286047001.2,N
1512085315.2,286046997.0,N
1512085335.0,286046997.3,N
1512085335.9,286046997.3,N
1512085355.8,286046996.6,N
1512085375.6,286046998.9,N
1512085395.4,286046998.8,N
1512085415.3,286046996.6,N
1512085435.1,286046995.8,N
1512085455.8,286046994.2,N
1512085475.7,286046991.9,N
1512085495.5,286046992.5,N
1512085515.3,286046991.1,N
1512085535.2,286046991.4,N
1512085555.9,286046997.2,N
1512085575.7,286046997.8,N
1512085595.6,286046996.8,N
1512085615.4,286046997.3,N
1512085635.2,286047000.8,N
1512085655.0,286047000.4,N
1512085656.0,286047000.4,N
1512085675.8,286047000.0,N
1512085695.6,286047002.5,N
1512085715.4,286047000.8,N
1512085735.3,286047004.3,N
1512085755.1,286047007.2,N
1512085775.8,286047006.1,N
1512085795.7,286047007.3,N
1512085815.5,286047007.0,N
1512085835.3,286047008.1,N
1512085855.2,286047009.8,N
1512085875.9,286047010.9,N
1512085895.7,286047014.7,N
1512085915.6,286047016.0,N
1512085935.4,286047018.6,N
1512085955.2,286047018.4,N
1512085975.1,286047018.4,N
1512085976.0,286047018.4,N
1512085995.8,286047012.9,N
1512086015.6,286047015.3,N
1512086035.5,286047015.1,N
1512086055.3,286047016.1,N
1512086075.1,286047024.4,N
1512086095.9,286047027.1,Y
1512086115.7,286047022.1,P
1512086135.5,286047023.0,P
1512086155.3,286047021.5,P
1512086175.2,286047015.4,N
1512086195.0,286047011.8,N
1512086195.9,286047011.8,N
1512086215.7,286047010.6,N
1512086235.6,286047006.2,N
1512086255.4,286047013.8,N
1512086275.2,286047011.1,N
1512086295.1,286047015.1,N
1512086296.0,286047015.1,N
1512086315.8,286047012.8,N
1512086335.6,286047018.6,Y
1512086355.5,286047004.4,P
1512086375.3,286047005.2,N
1512086395.1,286047010.4,N
